This demonstration page uses our WeatherBlox Daily Observations layout. Learn more.

Left ArrowRight Arrow

40.92945, -100.16068

Hourly Observations for February 12, 2018

Temp ( °F °C ) Dew Point ( °F °C ) Humidity (%) Winds ( mph kmh ) Pressure ( in mb ) Visibility ( mi km ) Precip ( " mm )
12:15 am 00:15 Clear 12 -11.1 7 -14.1 79 79 ENE 9 15 30.48 1032 10 16.0934 0 0
12:35 am 00:35 Clear 13 -10.8 7 -14.1 77 77 NE 9 15 30.48 1032 10 16.0934 0 0
12:55 am 00:55 Clear 10 -12 5 -15.1 78 78 ENE 9 15 30.53 1034 10 16.0934 0 0
1:15 am 01:15 Clear 9 -13 4 -15.7 80 80 ENE 9 15 30.53 1034 10 16.0934 0 0
1:35 am 01:35 Clear 10 -12.2 5 -15.1 79 79 ENE 10 17 30.53 1034 10 16.0934 0 0
1:55 am 01:55 Clear 10 -12.1 5 -15 79 79 ENE 8 13 30.53 1034 10 16.0934 0 0
2:15 am 02:15 Clear 11 -11.5 6 -14.2 81 81 ENE 8 13 30.56 1035 10 16.0934 0 0
2:35 am 02:35 Clear 12 -11.2 7 -13.9 81 81 ENE 10 17 30.56 1035 10 16.0934 0 0
2:55 am 02:55 Clear 13 -10.7 8 -13.5 80 80 ENE 10 17 30.53 1034 10 16.0934 0 0
3:15 am 03:15 Clear 13 -10.7 8 -13.5 80 80 ENE 10 17 30.59 1036 10 16.0934 0 0
3:35 am 03:35 Clear 12 -11 8 -13.5 82 82 ENE 10 17 30.59 1036 10 16.0934 0 0
3:55 am 03:55 Clear 11 -11.4 7 -14 81 81 ENE 10 17 30.56 1035 10 16.0934 0 0
4:15 am 04:15 Clear 11 -11.5 7 -14 82 82 ENE 13 20 30.59 1036 10 16.0934 0 0
4:35 am 04:35 Clear 11 -11.6 7 -14 83 83 E 13 20 30.59 1036 10 16.0934 0 0
4:55 am 04:55 Clear 11 -11.6 7 -14 83 83 E 15 24 30.59 1036 10 16.0934 0 0
5:15 am 05:15 Clear 11 -11.5 7 -14 82 82 E 14 22 30.59 1036 10 16.0934 0 0
5:35 am 05:35 Clear 11 -11.5 7 -14 82 82 E 8 13 30.62 1037 10 16.0934 0 0
5:55 am 05:55 Clear 11 -11.6 7 -14.1 82 82 E 14 22 30.62 1037 10 16.0934 0 0
6:15 am 06:15 Clear 11 -11.9 6 -14.4 82 82 E 14 22 30.62 1037 10 16.0934 0 0
6:35 am 06:35 Clear 10 -12.2 6 -14.6 83 83 E 10 17 30.62 1037 10 16.0934 0 0
6:55 am 06:55 Clear 10 -12.2 6 -14.7 82 82 E 13 20 30.62 1037 10 16.0934 0 0
7:15 am 07:15 Clear 10 -12.2 5 -15 80 80 E 13 20 30.62 1037 10 16.0934 0 0
7:35 am 07:35 Clear 9 -12.8 4 -15.5 80 80 E 10 17 30.62 1037 10 16.0934 0 0
7:55 am 07:55 Sunny 9 -13 4 -15.8 80 80 E 13 20 30.65 1038 10 16.0934 0 0
8:15 am 08:15 Sunny 8 -13.5 3 -16.3 80 80 E 12 19 30.68 1039 10 16.0934 0 0
8:35 am 08:35 Sunny 7 -13.7 2 -16.6 79 79 E 12 19 30.68 1039 10 16.0934 0 0
8:55 am 08:55 Sunny 8 -13.1 3 -16.3 77 77 E 14 22 30.68 1039 10 16.0934 0 0
9:15 am 09:15 Sunny 9 -12.7 3 -16.1 76 76 E 13 20 30.68 1039 10 16.0934 0 0
9:35 am 09:35 Sunny 10 -12.4 4 -15.8 76 76 E 16 26 30.65 1038 10 16.0934 0 0
9:55 am 09:55 Sunny 10 -12.1 4 -15.5 76 76 E 17 28 30.65 1038 10 16.0934 0 0
10:15 am 10:15 Sunny 11 -11.6 5 -15.2 75 75 ESE 17 28 30.62 1037 10 16.0934 0.01 0.254
10:35 am 10:35 Sunny 11 -11.5 4 -15.3 74 74 ESE 18 30 30.62 1037 10 16.0934 0.01 0.254
10:55 am 10:55 Sunny 12 -11 5 -15 73 73 ESE 15 24 30.62 1037 10 16.0934 0.01 0.254
11:15 am 11:15 Sunny 13 -10.4 6 -14.4 73 73 E 14 22 30.65 1038 10 16.0934 0 0
11:35 am 11:35 Sunny 14 -10 6 -14.2 72 72 E 12 19 30.65 1038 10 16.0934 0 0
11:55 am 11:55 Sunny 15 -9.6 7 -13.7 72 72 E 13 20 30.62 1037 10 16.0934 0 0
12:15 pm 12:15 Sunny 15 -9.4 8 -13.5 72 72 E 12 19 30.62 1037 10 16.0934 0 0
12:35 pm 12:35 Sunny 16 -9.1 8 -13.2 72 72 E 12 19 30.59 1036 10 16.0934 0 0
12:55 pm 12:55 Sunny 16 -9 9 -13 73 73 ESE 17 28 30.59 1036 10 16.0934 0 0
1:15 pm 13:15 Sunny 17 -8.4 10 -12.5 73 73 E 17 28 30.59 1036 10 16.0934 0 0
1:35 pm 13:35 Sunny 17 -8.4 10 -12.4 73 73 ESE 15 24 30.56 1035 10 16.0934 0 0
1:55 pm 13:55 Sunny 18 -8 11 -11.9 74 74 E 15 24 30.56 1035 10 16.0934 0 0
2:15 pm 14:15 Partly Cloudy 18 -8 11 -11.9 74 74 ESE 17 28 30.56 1035 10 16.0934 0 0
2:35 pm 14:35 Cloudy 18 -7.7 11 -11.5 74 74 ESE 13 20 30.53 1034 10 16.0934 0 0
2:55 pm 14:55 Cloudy 19 -7.5 12 -11.1 76 76 E 15 24 30.5 1033 10 16.0934 0 0
3:15 pm 15:15 Cloudy 19 -7.5 12 -11 76 76 E 15 24 30.5 1033 10 16.0934 0 0
3:35 pm 15:35 Cloudy 19 -7.2 13 -10.8 76 76 E 16 26 30.5 1033 10 16.0934 0 0
3:55 pm 15:55 Cloudy 19 -7.2 13 -10.6 77 77 E 14 22 30.5 1033 10 16.0934 0 0
4:15 pm 16:15 Cloudy 19 -7.3 13 -10.6 78 78 ESE 18 30 30.5 1033 10 16.0934 0 0
4:35 pm 16:35 Cloudy 19 -7.5 13 -10.6 79 79 E 16 26 30.5 1033 10 16.0934 0 0
4:55 pm 16:55 Cloudy 19 -7.5 13 -10.5 79 79 ESE 18 30 30.48 1032 10 16.0934 0 0
5:15 pm 17:15 Cloudy 19 -7.5 13 -10.5 79 79 E 20 31 30.5 1033 10 16.0934 0 0
5:35 pm 17:35 Cloudy 18 -7.6 13 -10.5 80 80 E 16 26 30.5 1033 10 16.0934 0 0
5:55 pm 17:55 Partly Cloudy 18 -7.6 13 -10.6 79 79 E 15 24 30.5 1033 10 16.0934 0 0
6:15 pm 18:15 Clear 18 -7.7 13 -10.5 81 81 E 15 24 30.5 1033 10 16.0934 0 0
6:35 pm 18:35 Clear 18 -8 13 -10.7 81 81 E 16 26 30.5 1033 10 16.0934 0 0
6:55 pm 18:55 Clear 17 -8.2 12 -11 80 80 E 14 22 30.53 1034 10 16.0934 0 0
7:15 pm 19:15 Clear 17 -8.3 12 -11.2 80 80 E 12 19 30.53 1034 10 16.0934 0 0
7:35 pm 19:35 Clear 17 -8.5 12 -11.3 80 80 E 12 19 30.53 1034 10 16.0934 0 0
7:55 pm 19:55 Clear 17 -8.6 11 -11.5 80 80 E 14 22 30.53 1034 10 16.0934 0 0
8:15 pm 20:15 Clear 16 -8.7 11 -11.5 80 80 E 15 24 30.53 1034 10 16.0934 0 0
8:35 pm 20:35 Clear 16 -8.8 11 -11.6 80 80 E 12 19 30.53 1034 10 16.0934 0 0
8:55 pm 20:55 Clear 15 -9.2 11 -11.8 82 82 E 13 20 30.53 1034 10 16.0934 0 0
9:15 pm 21:15 Clear 15 -9.3 11 -11.9 82 82 E 14 22 30.53 1034 10 16.0934 0 0
9:35 pm 21:35 Clear 15 -9.3 11 -11.8 82 82 E 10 17 30.56 1035 10 16.0934 0 0
9:55 pm 21:55 Clear 15 -9.3 11 -11.8 82 82 E 9 15 30.56 1035 10 16.0934 0 0
10:15 pm 22:15 Clear 15 -9.5 10 -12 82 82 E 10 17 30.53 1034 10 16.0934 0 0
10:35 pm 22:35 Clear 15 -9.5 11 -11.8 84 84 ESE 10 17 30.53 1034 10 16.0934 0 0
10:55 pm 22:55 Clear 15 -9.2 11 -11.5 84 84 ESE 12 19 30.53 1034 10 16.0934 0 0
11:15 pm 23:15 Clear 15 -9.3 11 -11.6 84 84 ESE 12 19 30.53 1034 10 16.0934 0 0
11:35 pm 23:35 Clear 15 -9.3 11 -11.7 83 83 ESE 10 17 30.53 1034 10 16.0934 0 0
11:55 pm 23:55 Clear 15 -9.4 11 -11.8 83 83 ESE 9 15 30.53 1034 10 16.0934 0 0

Powered by AerisWeather